SCP
0 0 0 0 0 0 0 0 0 0 0 0 0 0 0 0 0 0 0 0 0 0 0 0 0 0 0 0 0 0 0 0 0 0 0 0 0 0 0 0 0 0 0 0 0 0 0
0 0 0 0 0 0 0 0 0 0 0 0 0 0 0 0 0 0 0 0 0 0 0 0 0 0 0 0 0 0 0 0 0 0 0 0 0 0 0 0 0 0 0 0 0 0 0
-0 0 0 0 0 0 0 0 0 0 0 0 0 0 0 0 0 0 0 0 0 0 0 0 0 0 0 0 0 0 0 0 0 0 0 0 0 0 0 0 0 0 0 0 0 0 0
0 0 0 0 0 0 0 0 0 0 0 0 0 0 0 0 0 0 0 0 0 0 0 0 0 0 0 0 0 0 0 0 0 0 0 0 0 0 0 0 0 0 0 0 0 0 0
0 0 0 0 0 0 0 0 0 0 0 0 0 0 0 0 0 0 0 0 0 0 0 0 0 0 0 0 0 0 0 0 0 0 0 0 0 0 0 0 0 0 0 0 0 0 0
0 -0 0 0 0 0 0 0 0 0 0 0 0 0 0 0 0 0 0 0 0 0 0 0 0 0 0 0 0 0 0 0 0 0 0 0 0 0 0 0 0 0 0 0 0 0 0
0 0 0 0 0 0 0 0 0 0 0 0 0 0 0 0 0 0 0 0 0 0 0 0 0 0 0 0 0 0 0 0 0 0 0 0 0 0 0 0 0 0 0 0 0 0 0
-0 0 0 0 0 0 0 0 0 0 0 0 0 0 0 0 0 0 0 0 0 0 0 0 0 0 0 0 0 0 0 0 0 0 0 0 0 0 0 0 0 0 0 0 0 0 0
0 0 -0 0 0 0 0 0 0 0 0 0 0 0 0 0 0 0 0 0 0 0 0 0 0 0 0 0 0 0 0 0 0 0 0 0 0 0 0 0 0 0 0 0 0 0 0
-0 0 0 -0 -0 -0 0 0 0 0 0 0 0 0 0 0 0 0 0 0 0 0 0 0 0 0 0 0 0 0 0 0 0 0 0 0 0 0 0 0 0 0 0 0 0 0 0
-0 0 -0 -0 -0 -0 0 0 0 0 0 -0 0 0 0 0 0 0 0 0 0 0 0 0 0 0 0 0 0 0 0 0 0 0 0 0 0 0 0 0 0 0 0 0 0 0 0
-0 -0 -0 -0 -0 -0 0 0 0 0 0 0 0 0 0 0 0 0 0 0 0 0 0 0 0 0 0 0 0 0 0 0 0 0 0 0 0 0 0 0 0 0 0 0 0 0 0
-0 -0 -0 -0 -0 -0 -0 -0 -0 0 0 0 0 0 0 0 0 0 0 0 0 0 0 0 0 0 0 0 0 0 0 0 0 0 0 0 0 0 0 0 0 0 0 0 0 0 0
-0 -0 -0 -0 -0 -0 -0 -0 -0 -0 -0 0 0 0 0 0 0 0 0 0 0 0 0 0 0 0 0 0 0 0 0 0 0 0 0 0 0 0 0 0 0 0 0 0 0 0 0
-0 -0 -0 -0 -0 -0 -0 -0 -0 0 0 0 0 0 0 0 0 0 0 0 0 0 0 0 0 0 0 0 0 0 0 0 0 0 0 0 0 0 0 0 0 0 0 0 0 0 0
0 -0 0 0 -0 -0 -0 -0 -0 0 0 0 0 0 0 0 0 0 -0 0 0 0 0 0 0 0 0 0 0 0 0 0 0 0 0 0 0 0 0 0 0 0 0 0 0 0 0
-0 0 0 0 0 -0 0 0 0 -0 0 0 0 0 0 0 0 0 0 -0 0 0 0 0 0 0 0 0 0 0 0 0 0 0 0 0 0 0 0 0 0 0 0 0 0 0 0
0 0 -0 0 0 -0 0 0 0 0 0 0 0 0 0 0 0 0 0 0 0 0 0 0 0 0 0 0 0 0 0 0 0 0 0 0 0 0 0 0 0 0 0 0 0 0 0
-0 0 -0 0 -0 0 0 0 -0 0 -0 0 0 0 0 0 0 0 0 0 0 0 0 0 0 0 0 0 0 0 0 0 0 0 0 0 0 0 0 0 0 0 0 0 0 0 0
0 0 -0 -0 0 0 0 0 0 -0 -0 0 0 0 0 0 0 0 0 0 0 0 0 0 0 0 0 0 0 0 0 0 0 0 0 0 0 0 0 0 0 0 0 0 0 0 0
-0 -0 -0 -0 -0 -0 -0 0 0 0 0 0 0 0 0 0 0 0 0 -0 0 0 0 0 0 0 0 0 0 0 0 0 0 0 0 0 0 0 0 0 0 0 0 0 0 0 0
-0 -0 -0 -0 -0 0 0 -0 -0 -0 0 0 0 0 0 0 0 0 0 0 0 0 0 0 0 0 0 0 0 0 0 0 0 0 0 0 0 0 0 0 0 0 0 0 0 0 0
-0 -0 -0 -0 -0 0 -0 0 -0 -0 0 0 0 0 0 0 0 0 0 0 0 0 0 0 0 -0 -0 -0 0 0 0 0 0 0 0 0 0 0 0 0 0 0 0 0 0 0 0
-0 -0 -0 -0 -0 0 -0 -0 -0 -0 -0 0 0 0 0 0 0 0 0 0 0 0 0 0 0 0 -0 -0 -0 0 0 0 0 0 0 0 0 0 0 0 0 0 0 0 0 0 0
-0 0 -0 -0 0 0 -0 -0 -0 -0 -0 0 0 0 0 -0 -0 -0 0 0 0 0 0 0 0 0 0 -0 0 0 0 0 0 0 0 0 0 0 0 0 0 0 0 0 0 0 0
-0 -0 -0 0 0 -0 0 -0 -0 -0 -0 0 0 0 0 -0 -0 0 0 0 0 0 0 -0 0 0 0 0 0 0 0 0 0 0 0 0 0 0 0 0 0 0 0 0 0 0 0
-0 0 0 0 0 0 -0 -0 -0 -0 0 0 0 0 0 -0 0 0 0 0 0 0 0 0 0 0 0 0 0 0 0 0 0 0 0 0 0 0 0 0 0 0 0 0 0 0 0
-0 -0 0 0 0 0 -0 -0 -0 -0 0 0 0 0 0 0 -0 0 0 0 0 0 0 0 0 0 0 0 0 0 0 0 0 0 0 0 0 0 0 0 0 0 0 0 0 0 0
-0 -0 0 0 0 0 -0 -0 -0 -0 -0 0 0 0 0 0 0 0 0 0 0 0 0 0 0 0 0 0 0 0 0 0 0 0 0 0 0 0 0 0 0 0 0 0 0 0 0
Wind_Speed_500mb
66 65 64 61 54 54 59 53 54 58 57 62 62 56 51 56 56 55 55 54 50 50 40 39 32 25 23 19 34 3 1 9 25 51 47 39 26 17 11 10 12 8 10 15 18 13 9
63 66 65 66 63 56 59 57 62 56 53 52 64 69 59 57 57 55 57 52 51 52 49 42 37 34 38 22 26 42 11 3 4 39 45 40 17 24 7 9 16 7 16 17 14 26 16
68 67 67 66 65 56 51 56 55 50 54 55 59 68 68 58 58 55 54 54 50 49 48 42 42 44 53 52 15 13 44 21 5 17 48 43 27 21 7 3 15 8 6 7 10 15 12
67 70 67 69 60 56 54 50 55 53 52 57 54 55 59 64 58 58 54 52 52 47 45 45 44 49 41 43 41 48 15 34 14 13 34 38 39 12 8 2 2 7 5 6 7 26 14
68 63 64 59 51 53 52 56 58 52 53 53 59 56 58 61 59 52 55 52 48 48 44 44 48 50 20 32 60 44 42 20 20 21 29 28 28 12 10 9 4 4 6 10 12 24 9
45 49 50 50 48 45 49 55 56 51 54 59 57 59 59 59 56 50 50 49 43 40 44 41 56 32 31 21 41 40 39 33 27 29 23 21 16 8 11 18 19 12 8 10 12 5 11
44 39 34 39 52 50 54 58 59 56 54 59 63 60 57 59 58 57 45 43 28 24 53 54 21 38 20 31 32 33 43 47 34 38 23 29 12 38 37 31 12 11 10 16 4 6 6
37 28 27 42 42 50 55 57 65 66 66 63 65 63 60 57 57 52 58 53 45 12 19 73 54 64 25 47 27 43 66 40 28 19 19 15 47 11 17 14 15 8 9 10 8 6 6
30 27 35 36 43 41 50 54 56 62 68 71 70 66 61 58 61 57 70 77 52 33 10 31 93 53 44 53 29 62 80 56 38 31 35 20 5 32 19 15 27 26 33 7 5 6 5
33 34 30 35 29 19 22 30 43 58 57 67 68 67 60 58 57 67 75 78 63 55 9 18 29 42 62 33 16 42 92 63 14 37 18 22 30 15 10 35 30 32 15 13 10 6 9
40 32 34 37 35 28 29 31 42 41 50 50 69 64 62 62 59 54 81 71 63 52 28 22 29 36 45 54 30 30 79 59 28 20 22 18 19 31 23 19 25 12 16 24 12 8 5
37 33 35 28 35 32 31 35 35 18 36 48 58 56 56 58 68 52 60 64 67 23 18 20 37 35 40 27 24 47 58 47 21 11 34 13 5 23 27 13 31 13 10 8 6 19 20
33 39 36 37 37 35 32 33 34 28 24 37 45 53 56 56 50 67 45 63 25 44 14 11 32 41 52 30 29 25 43 42 26 16 24 31 11 5 13 15 9 17 17 6 12 15 26
32 38 41 40 40 37 41 37 36 36 35 39 38 44 54 63 56 51 64 29 40 47 24 8 25 42 54 32 28 33 47 41 37 16 14 25 20 30 11 15 16 44 29 10 15 11 16
45 42 43 44 44 42 35 36 32 29 18 26 31 38 46 63 60 57 44 31 19 19 17 31 29 48 35 26 15 25 44 62 52 40 19 24 24 9 14 9 29 30 33 16 6 2 4
49 52 49 47 48 44 42 35 27 20 11 17 29 33 42 50 48 46 12 21 9 9 11 24 40 31 41 43 36 38 44 48 50 47 8 13 2 10 15 11 21 17 14 17 14 15 19
59 56 54 54 52 49 47 39 31 19 16 20 25 17 15 44 42 16 5 5 2 17 14 17 22 17 38 28 30 38 48 29 53 51 33 14 8 1 23 30 43 15 18 12 8 14 9
64 64 65 64 60 58 51 46 38 25 23 26 19 5 17 42 9 5 5 10 5 3 7 8 3 7 13 35 32 32 36 27 82 54 50 14 9 8 23 9 24 37 33 38 12 20 9
64 75 70 68 69 67 60 53 46 35 35 37 13 7 15 48 8 5 4 2 6 5 9 5 6 6 7 12 20 24 27 40 69 34 38 27 11 7 3 2 0 23 26 27 11 4 23
60 60 52 63 76 73 74 65 61 49 45 49 17 4 11 22 12 13 8 6 7 12 3 1 8 9 9 9 23 21 23 9 52 56 54 49 12 33 30 16 14 25 35 36 39 24 35
66 66 57 53 51 59 94 80 71 67 60 57 26 9 13 10 16 6 12 13 17 8 3 8 7 12 5 7 22 22 20 14 25 55 45 23 29 20 24 5 10 17 37 40 34 49 28
69 71 72 59 56 51 51 65 93 82 71 62 23 12 12 3 12 16 14 11 20 11 16 13 14 20 13 11 30 33 35 19 25 36 42 18 9 16 2 6 13 9 26 36 44 47 38
76 78 72 62 59 54 49 60 100 90 88 37 49 21 14 16 7 13 16 25 22 13 11 17 11 2 10 36 50 49 46 44 28 42 35 18 17 18 37 10 6 4 43 30 34 32 40
80 82 78 76 64 43 42 70 102 97 98 50 45 23 7 5 10 13 9 26 31 34 27 8 24 14 10 17 21 50 10 10 28 31 31 37 33 8 4 15 21 17 8 40 37 26 37
78 86 77 77 70 20 51 82 98 93 93 58 45 29 8 4 5 9 14 19 20 29 19 13 24 24 9 13 5 13 7 7 13 12 33 31 21 7 9 21 5 6 8 15 21 25 10
80 84 72 60 43 30 51 71 90 92 88 60 42 30 9 5 5 12 10 10 12 20 8 12 24 21 7 1 7 9 10 10 11 12 3 28 28 18 6 8 20 9 7 4 12 24 6
83 85 64 48 17 14 32 49 87 83 83 62 41 24 5 1 3 7 3 4 6 8 10 6 10 10 19 7 7 5 5 3 15 18 14 15 10 21 10 6 11 6 3 4 15 9 16
82 80 69 39 17 16 34 30 75 78 78 60 30 38 9 4 8 6 4 5 13 11 7 12 12 2 4 7 6 3 4 6 6 6 15 22 15 8 5 6 15 3 3 20 14 25 34
74 79 67 49 33 18 29 48 76 71 67 54 32 18 10 9 1 3 6 4 1 1 5 9 7 5 10 3 2 5 6 3 7 4 6 8 9 10 9 5 8 13 17 17 20 41 30
Wind_Direction_500mb
289 292 289 277 270 269 270 270 259 264 263 251 257 251 250 247 242 241 241 244 245 249 251 241 239 235 226 223 229 223 277 290 220 200 207 211 195 184 182 200 179 208 204 209 228 226 247
292 286 284 281 271 268 264 267 266 262 259 255 250 255 254 249 244 242 238 241 242 243 243 240 233 225 225 230 254 240 228 311 197 214 200 201 206 208 216 211 184 219 213 222 226 242 252
295 285 278 279 267 260 259 267 271 270 266 262 260 253 252 254 248 244 239 236 237 237 236 239 228 223 230 233 233 240 235 227 200 215 207 202 207 187 206 177 237 242 290 332 213 222 239
294 286 281 266 264 260 259 261 264 266 265 263 262 258 254 253 253 245 242 233 231 232 232 233 231 223 236 247 249 246 289 232 229 191 214 206 207 215 197 268 27 172 167 199 237 184 231
294 283 281 274 257 255 255 256 248 254 255 258 260 257 254 250 247 246 242 236 233 232 229 226 226 215 243 233 239 240 230 203 206 196 203 213 217 213 188 109 11 270 217 221 300 207 164
296 288 274 267 265 263 260 263 257 251 255 258 253 255 252 252 247 243 236 236 230 228 223 222 225 204 222 195 228 238 229 192 183 190 185 193 188 191 191 187 212 192 198 235 210 259 218
294 302 281 278 265 269 267 261 261 260 256 255 255 255 244 246 246 239 236 226 212 223 218 204 199 204 144 193 199 211 194 182 181 179 188 187 187 211 193 205 212 181 187 204 231 260 208
300 302 297 296 285 269 266 261 264 260 253 250 250 249 244 239 241 235 230 227 207 179 209 222 224 209 203 171 165 197 179 173 186 184 147 184 225 157 169 189 202 181 192 215 296 241 210
304 308 295 314 291 282 278 268 268 261 248 243 242 243 241 233 232 230 228 229 222 207 248 216 222 214 199 186 183 185 184 187 183 185 194 198 207 169 169 179 206 224 225 142 187 355 299
309 309 316 323 329 327 299 293 288 266 248 235 232 240 234 227 230 225 228 225 225 218 244 204 192 220 205 179 219 198 191 180 178 203 173 233 238 192 190 204 187 223 178 165 183 99 241
317 314 320 331 337 342 333 319 316 263 241 233 225 234 229 220 222 220 224 218 217 208 232 184 173 198 196 198 155 194 189 185 182 179 169 210 160 199 214 201 181 220 153 195 164 177 29
309 305 309 308 307 313 319 328 335 315 237 232 226 227 224 223 224 214 213 211 205 221 219 172 153 169 164 187 192 166 186 196 194 157 214 199 192 177 209 161 182 134 78 81 116 223 243
310 303 301 305 302 305 309 315 318 319 275 234 229 226 221 221 233 216 191 192 208 221 153 203 168 172 176 177 189 169 177 193 183 174 198 209 217 237 163 146 131 166 134 184 214 210 239
309 301 298 298 298 296 300 306 310 310 296 236 222 223 218 223 230 210 208 203 225 209 203 170 167 179 186 160 187 185 172 190 201 181 165 189 212 209 195 192 186 201 197 164 195 209 233
304 291 288 289 292 296 295 295 299 306 309 217 222 216 218 227 230 220 208 213 222 212 156 157 171 175 185 181 149 164 187 190 190 184 163 186 227 242 174 160 170 192 213 199 109 58 89
300 299 288 280 282 280 283 287 291 287 304 223 214 212 215 213 217 217 231 218 251 155 155 164 178 187 182 181 176 184 184 198 192 196 164 197 211 185 172 134 228 172 140 195 219 210 230
293 287 282 280 279 273 269 267 274 267 277 224 212 179 220 214 219 205 223 254 187 311 296 185 180 166 202 179 185 182 181 181 190 191 197 162 140 341 139 204 197 167 207 213 182 197 207
288 280 276 271 265 267 262 256 249 242 239 217 200 171 180 186 191 207 164 162 160 221 305 65 103 127 167 200 198 185 188 187 195 189 194 174 135 156 199 327 211 212 213 204 203 208 211
292 280 269 264 261 258 255 244 237 228 220 193 184 170 178 187 218 169 135 233 133 163 277 132 135 186 110 195 211 198 205 211 189 180 183 181 199 131 41 37 201 206 218 211 191 77 202
334 341 277 277 257 248 248 239 225 217 209 200 167 165 185 217 208 155 139 223 204 204 212 116 122 97 194 235 203 201 192 161 183 192 193 177 190 208 214 229 133 199 208 208 208 223 229
341 339 327 309 287 261 237 231 219 208 199 200 180 208 178 192 201 187 172 186 193 177 75 164 184 185 171 259 205 213 192 151 185 191 194 193 215 208 228 160 195 207 209 208 210 222 216
344 336 329 319 302 277 231 228 208 202 191 195 164 166 171 218 163 156 196 216 210 190 157 205 221 161 156 228 271 191 183 156 183 188 192 191 229 183 195 144 178 187 207 205 210 222 225
346 343 339 328 312 283 266 218 193 194 186 195 204 174 172 178 141 166 211 206 209 152 239 206 218 77 197 237 245 264 183 184 163 173 185 189 182 179 222 148 82 272 221 198 213 215 208
348 351 346 337 329 298 233 196 188 188 191 192 192 178 157 235 173 207 207 206 208 202 216 132 170 204 254 228 251 234 272 220 166 181 191 187 192 183 191 150 220 249 216 203 206 212 215
352 355 355 351 355 352 182 173 182 184 192 187 176 178 185 267 226 189 178 205 212 220 235 222 206 205 287 186 75 161 145 171 161 214 186 192 178 134 161 199 303 285 196 151 174 228 211
356 360 358 359 11 99 147 168 180 183 187 181 176 186 198 96 264 263 169 182 201 207 206 229 236 201 71 226 169 208 171 125 146 149 293 192 194 189 152 170 206 222 170 85 89 251 156
4 7 3 2 31 123 151 173 185 182 188 179 172 159 139 159 293 224 210 219 172 169 196 145 184 210 162 252 194 149 129 161 152 153 160 185 193 201 172 199 281 229 133 219 144 235 124
9 11 6 14 62 109 157 165 176 177 186 176 179 197 289 279 244 258 243 227 201 226 153 153 145 201 130 233 114 172 118 189 97 186 171 170 174 170 113 141 261 10 160 181 107 111 129
16 20 31 43 57 108 162 157 166 174 182 181 184 193 250 279 218 189 115 118 219 354 125 150 30 118 179 84 66 112 70 77 128 182 335 167 158 172 182 202 44 71 77 111 139 138 143
Wind_Speed_850mb
66 65 64 61 54 54 59 53 54 58 57 62 62 56 51 56 56 55 55 54 50 50 40 39 32 25 23 19 34 3 1 9 25 51 47 39 26 17 11 10 12 8 10 15 18 13 9
63 66 65 66 63 56 59 57 62 56 53 52 64 69 59 57 57 55 57 52 51 52 49 42 37 34 38 22 26 42 11 3 4 39 45 40 17 24 7 9 16 7 16 17 14 26 16
68 67 67 66 65 56 51 56 55 50 54 55 59 68 68 58 58 55 54 54 50 49 48 42 42 44 53 52 15 13 44 21 5 17 48 43 27 21 7 3 15 8 6 7 10 15 12
67 70 67 69 60 56 54 50 55 53 52 57 54 55 59 64 58 58 54 52 52 47 45 45 44 49 41 43 41 48 15 34 14 13 34 38 39 12 8 2 2 7 5 6 7 26 14
68 63 64 59 51 53 52 56 58 52 53 53 59 56 58 61 59 52 55 52 48 48 44 44 48 50 20 32 60 44 42 20 20 21 29 28 28 12 10 9 4 4 6 10 12 24 9
45 49 50 50 48 45 49 55 56 51 54 59 57 59 59 59 56 50 50 49 43 40 44 41 56 32 31 21 41 40 39 33 27 29 23 21 16 8 11 18 19 12 8 10 12 5 11
44 39 34 39 52 50 54 58 59 56 54 59 63 60 57 59 58 57 45 43 28 24 53 54 21 38 20 31 32 33 43 47 34 38 23 29 12 38 37 31 12 11 10 16 4 6 6
37 28 27 42 42 50 55 57 65 66 66 63 65 63 60 57 57 52 58 53 45 12 19 73 54 64 25 47 27 43 66 40 28 19 19 15 47 11 17 14 15 8 9 10 8 6 6
30 27 35 36 43 41 50 54 56 62 68 71 70 66 61 58 61 57 70 77 52 33 10 31 93 53 44 53 29 62 80 56 38 31 35 20 5 32 19 15 27 26 33 7 5 6 5
33 34 30 35 29 19 22 30 43 58 57 67 68 67 60 58 57 67 75 78 63 55 9 18 29 42 62 33 16 42 92 63 14 37 18 22 30 15 10 35 30 32 15 13 10 6 9
40 32 34 37 35 28 29 31 42 41 50 50 69 64 62 62 59 54 81 71 63 52 28 22 29 36 45 54 30 30 79 59 28 20 22 18 19 31 23 19 25 12 16 24 12 8 5
37 33 35 28 35 32 31 35 35 18 36 48 58 56 56 58 68 52 60 64 67 23 18 20 37 35 40 27 24 47 58 47 21 11 34 13 5 23 27 13 31 13 10 8 6 19 20
33 39 36 37 37 35 32 33 34 28 24 37 45 53 56 56 50 67 45 63 25 44 14 11 32 41 52 30 29 25 43 42 26 16 24 31 11 5 13 15 9 17 17 6 12 15 26
32 38 41 40 40 37 41 37 36 36 35 39 38 44 54 63 56 51 64 29 40 47 24 8 25 42 54 32 28 33 47 41 37 16 14 25 20 30 11 15 16 44 29 10 15 11 16
45 42 43 44 44 42 35 36 32 29 18 26 31 38 46 63 60 57 44 31 19 19 17 31 29 48 35 26 15 25 44 62 52 40 19 24 24 9 14 9 29 30 33 16 6 2 4
49 52 49 47 48 44 42 35 27 20 11 17 29 33 42 50 48 46 12 21 9 9 11 24 40 31 41 43 36 38 44 48 50 47 8 13 2 10 15 11 21 17 14 17 14 15 19
59 56 54 54 52 49 47 39 31 19 16 20 25 17 15 44 42 16 5 5 2 17 14 17 22 17 38 28 30 38 48 29 53 51 33 14 8 1 23 30 43 15 18 12 8 14 9
64 64 65 64 60 58 51 46 38 25 23 26 19 5 17 42 9 5 5 10 5 3 7 8 3 7 13 35 32 32 36 27 82 54 50 14 9 8 23 9 24 37 33 38 12 20 9
64 75 70 68 69 67 60 53 46 35 35 37 13 7 15 48 8 5 4 2 6 5 9 5 6 6 7 12 20 24 27 40 69 34 38 27 11 7 3 2 0 23 26 27 11 4 23
60 60 52 63 76 73 74 65 61 49 45 49 17 4 11 22 12 13 8 6 7 12 3 1 8 9 9 9 23 21 23 9 52 56 54 49 12 33 30 16 14 25 35 36 39 24 35
66 66 57 53 51 59 94 80 71 67 60 57 26 9 13 10 16 6 12 13 17 8 3 8 7 12 5 7 22 22 20 14 25 55 45 23 29 20 24 5 10 17 37 40 34 49 28
69 71 72 59 56 51 51 65 93 82 71 62 23 12 12 3 12 16 14 11 20 11 16 13 14 20 13 11 30 33 35 19 25 36 42 18 9 16 2 6 13 9 26 36 44 47 38
76 78 72 62 59 54 49 60 100 90 88 37 49 21 14 16 7 13 16 25 22 13 11 17 11 2 10 36 50 49 46 44 28 42 35 18 17 18 37 10 6 4 43 30 34 32 40
80 82 78 76 64 43 42 70 102 97 98 50 45 23 7 5 10 13 9 26 31 34 27 8 24 14 10 17 21 50 10 10 28 31 31 37 33 8 4 15 21 17 8 40 37 26 37
78 86 77 77 70 20 51 82 98 93 93 58 45 29 8 4 5 9 14 19 20 29 19 13 24 24 9 13 5 13 7 7 13 12 33 31 21 7 9 21 5 6 8 15 21 25 10
80 84 72 60 43 30 51 71 90 92 88 60 42 30 9 5 5 12 10 10 12 20 8 12 24 21 7 1 7 9 10 10 11 12 3 28 28 18 6 8 20 9 7 4 12 24 6
83 85 64 48 17 14 32 49 87 83 83 62 41 24 5 1 3 7 3 4 6 8 10 6 10 10 19 7 7 5 5 3 15 18 14 15 10 21 10 6 11 6 3 4 15 9 16
82 80 69 39 17 16 34 30 75 78 78 60 30 38 9 4 8 6 4 5 13 11 7 12 12 2 4 7 6 3 4 6 6 6 15 22 15 8 5 6 15 3 3 20 14 25 34
74 79 67 49 33 18 29 48 76 71 67 54 32 18 10 9 1 3 6 4 1 1 5 9 7 5 10 3 2 5 6 3 7 4 6 8 9 10 9 5 8 13 17 17 20 41 30
Wind_Direction_850mb
289 292 289 277 270 269 270 270 259 264 263 251 257 251 250 247 242 241 241 244 245 249 251 241 239 235 226 223 229 223 277 290 220 200 207 211 195 184 182 200 179 208 204 209 228 226 247
292 286 284 281 271 268 264 267 266 262 259 255 250 255 254 249 244 242 238 241 242 243 243 240 233 225 225 230 254 240 228 311 197 214 200 201 206 208 216 211 184 219 213 222 226 242 252
295 285 278 279 267 260 259 267 271 270 266 262 260 253 252 254 248 244 239 236 237 237 236 239 228 223 230 233 233 240 235 227 200 215 207 202 207 187 206 177 237 242 290 332 213 222 239
294 286 281 266 264 260 259 261 264 266 265 263 262 258 254 253 253 245 242 233 231 232 232 233 231 223 236 247 249 246 289 232 229 191 214 206 207 215 197 268 27 172 167 199 237 184 231
294 283 281 274 257 255 255 256 248 254 255 258 260 257 254 250 247 246 242 236 233 232 229 226 226 215 243 233 239 240 230 203 206 196 203 213 217 213 188 109 11 270 217 221 300 207 164
296 288 274 267 265 263 260 263 257 251 255 258 253 255 252 252 247 243 236 236 230 228 223 222 225 204 222 195 228 238 229 192 183 190 185 193 188 191 191 187 212 192 198 235 210 259 218
294 302 281 278 265 269 267 261 261 260 256 255 255 255 244 246 246 239 236 226 212 223 218 204 199 204 144 193 199 211 194 182 181 179 188 187 187 211 193 205 212 181 187 204 231 260 208
300 302 297 296 285 269 266 261 264 260 253 250 250 249 244 239 241 235 230 227 207 179 209 222 224 209 203 171 165 197 179 173 186 184 147 184 225 157 169 189 202 181 192 215 296 241 210
304 308 295 314 291 282 278 268 268 261 248 243 242 243 241 233 232 230 228 229 222 207 248 216 222 214 199 186 183 185 184 187 183 185 194 198 207 169 169 179 206 224 225 142 187 355 299
309 309 316 323 329 327 299 293 288 266 248 235 232 240 234 227 230 225 228 225 225 218 244 204 192 220 205 179 219 198 191 180 178 203 173 233 238 192 190 204 187 223 178 165 183 99 241
317 314 320 331 337 342 333 319 316 263 241 233 225 234 229 220 222 220 224 218 217 208 232 184 173 198 196 198 155 194 189 185 182 179 169 210 160 199 214 201 181 220 153 195 164 177 29
309 305 309 308 307 313 319 328 335 315 237 232 226 227 224 223 224 214 213 211 205 221 219 172 153 169 164 187 192 166 186 196 194 157 214 199 192 177 209 161 182 134 78 81 116 223 243
310 303 301 305 302 305 309 315 318 319 275 234 229 226 221 221 233 216 191 192 208 221 153 203 168 172 176 177 189 169 177 193 183 174 198 209 217 237 163 146 131 166 134 184 214 210 239
309 301 298 298 298 296 300 306 310 310 296 236 222 223 218 223 230 210 208 203 225 209 203 170 167 179 186 160 187 185 172 190 201 181 165 189 212 209 195 192 186 201 197 164 195 209 233
304 291 288 289 292 296 295 295 299 306 309 217 222 216 218 227 230 220 208 213 222 212 156 157 171 175 185 181 149 164 187 190 190 184 163 186 227 242 174 160 170 192 213 199 109 58 89
300 299 288 280 282 280 283 287 291 287 304 223 214 212 215 213 217 217 231 218 251 155 155 164 178 187 182 181 176 184 184 198 192 196 164 197 211 185 172 134 228 172 140 195 219 210 230
293 287 282 280 279 273 269 267 274 267 277 224 212 179 220 214 219 205 223 254 187 311 296 185 180 166 202 179 185 182 181 181 190 191 197 162 140 341 139 204 197 167 207 213 182 197 207
288 280 276 271 265 267 262 256 249 242 239 217 200 171 180 186 191 207 164 162 160 221 305 65 103 127 167 200 198 185 188 187 195 189 194 174 135 156 199 327 211 212 213 204 203 208 211
292 280 269 264 261 258 255 244 237 228 220 193 184 170 178 187 218 169 135 233 133 163 277 132 135 186 110 195 211 198 205 211 189 180 183 181 199 131 41 37 201 206 218 211 191 77 202
334 341 277 277 257 248 248 239 225 217 209 200 167 165 185 217 208 155 139 223 204 204 212 116 122 97 194 235 203 201 192 161 183 192 193 177 190 208 214 229 133 199 208 208 208 223 229
341 339 327 309 287 261 237 231 219 208 199 200 180 208 178 192 201 187 172 186 193 177 75 164 184 185 171 259 205 213 192 151 185 191 194 193 215 208 228 160 195 207 209 208 210 222 216
344 336 329 319 302 277 231 228 208 202 191 195 164 166 171 218 163 156 196 216 210 190 157 205 221 161 156 228 271 191 183 156 183 188 192 191 229 183 195 144 178 187 207 205 210 222 225
346 343 339 328 312 283 266 218 193 194 186 195 204 174 172 178 141 166 211 206 209 152 239 206 218 77 197 237 245 264 183 184 163 173 185 189 182 179 222 148 82 272 221 198 213 215 208
348 351 346 337 329 298 233 196 188 188 191 192 192 178 157 235 173 207 207 206 208 202 216 132 170 204 254 228 251 234 272 220 166 181 191 187 192 183 191 150 220 249 216 203 206 212 215
352 355 355 351 355 352 182 173 182 184 192 187 176 178 185 267 226 189 178 205 212 220 235 222 206 205 287 186 75 161 145 171 161 214 186 192 178 134 161 199 303 285 196 151 174 228 211
356 360 358 359 11 99 147 168 180 183 187 181 176 186 198 96 264 263 169 182 201 207 206 229 236 201 71 226 169 208 171 125 146 149 293 192 194 189 152 170 206 222 170 85 89 251 156
4 7 3 2 31 123 151 173 185 182 188 179 172 159 139 159 293 224 210 219 172 169 196 145 184 210 162 252 194 149 129 161 152 153 160 185 193 201 172 199 281 229 133 219 144 235 124
9 11 6 14 62 109 157 165 176 177 186 176 179 197 289 279 244 258 243 227 201 226 153 153 145 201 130 233 114 172 118 189 97 186 171 170 174 170 113 141 261 10 160 181 107 111 129
16 20 31 43 57 108 162 157 166 174 182 181 184 193 250 279 218 189 115 118 219 354 125 150 30 118 179 84 66 112 70 77 128 182 335 167 158 172 182 202 44 71 77 111 139 138 143